Location: Aula-Vintri
(58.3875°N, 22.4322°E)
Time: 19:58:16
(UTC+00:00)

Cosmos 2082 Rocket - Pass Details

Date: 13 October 2019
Orbit: 832 x 854 km, 71.0° (Epoch: 21 November)

Event Time Altitude Azimuth Distance (km) Brightness Sun altitude
Rises 18:07:49 0° 322° (NW) 3,438 6.3 -21.0°
Reaches altitude 10° 18:10:17 10° 321° (NW) 2,498 5.5 -21.3°
Maximum altitude 18:16:01 75° 237° (WSW) 888 2.3 -22.0°
Enters shadow 18:18:25 36° 160° (SSE) 1,323 2.9 -22.3°
